Regional Weather Roundup
Issued by NWS Charleston, SC

Current Version | Previous Version | Text Only | Print | Product List | Glossary Off
Versions: 1 2 3 4 5 6 7 8 9 10 11 12 13 14 15 16 17 18 19 20 21 22 23 24 25 26 27 28 29 30 31 32 33 34 35 36 37 38 39 40 41 42 43 44 45 46 47 48 49 50

000
ASUS42 KCHS 130913
RWRCHS

REGIONAL WEATHER ROUNDUP
NATIONAL WEATHER SERVICE CHARLESTON SC
400 AM EST SAT FEB 13 2016

NOTE: "FAIR" INDICATES FEW OR NO CLOUDS BELOW 12,000 FEET WITH NO
SIGNIFICANT WEATHER AND/OR OBSTRUCTIONS TO VISIBILITY.

NOT ALL STATIONS ARE QUALITY CONTROLLED BY THE NATIONAL
WEATHER SERVICE. USE DATA WITH CAUTION...ESPECIALLY
DEWPOINT OBSERVATIONS.

SCZ027-030-031-034>040-042>050-131000-
...SOUTHEAST SOUTH CAROLINA...

CITY           SKY/WX    TMP DP  RH WIND       PRES   REMARKS
N CHARLESTON   PTCLDY    35  31  85 NW8       30.11R WCI  29
WATERFRONT PRK   N/A     44  36  73 NW5       29.94R
MOUNT PLEASANT FAIR      37  36  93 N5        30.10R WCI  34
JOHNS ISLAND   FAIR      39  36  87 W7        30.11R WCI  34
PINOPOLIS        N/A     37  32  81 CALM      30.02R
MONCKS CORNER  FAIR      28  27  93 CALM      30.11R FOG
SUMMERVILLE    FAIR      34  34 100 CALM      30.13R
BEAUFORT MCAS  CLEAR     44  33  65 NW10      30.12R
BEAUFORT ARPT  FAIR      45  34  65 NW13      30.11S
HILTON HEAD IS CLEAR     46  34  61 NW6       30.13R
WALTERBORO     SUNNY     37  36  93 NW3       30.13R
ALLENDALE      FAIR      43  30  61 CALM      30.13R

...SOUTHERN MIDLANDS AND PEE DEE...

CITY           SKY/WX    TMP DP  RH WIND       PRES   REMARKS
GEORGETOWN     FAIR      28  28 100 CALM      30.10S
KINGSTREE      FAIR      28  25  86 CALM      30.11R
ORANGEBURG     CLEAR     33  30  88 CALM      30.12R
BARNWELL       FAIR      41  32  70 CALM      30.13R
AIKEN          FAIR      36  28  75 W6        30.14R WCI  31
MANNING        FAIR      28  28 100 CALM      30.12R
COLUMBIA       CLEAR     38  26  62 NW7       30.11R WCI  33
SUMTER         CLEAR     35  26  69 NW6       30.08R WCI  30
FLORENCE       CLEAR     26  24  92 NW6       30.10R WCI  19
MYRTLE BEACH   CLEAR     30  23  74 W3        30.11R
N MYRTLE BEACH CLEAR     30  27  88 CALM      30.08R

$$

GAZ063-065-086>088-099>101-113>116-118-119-134>141-150-131000-
...SOUTHEAST GEORGIA...

CITY           SKY/WX    TMP DP  RH WIND       PRES   REMARKS
SAVANNAH ARPT  PTCLDY    45  35  68 NW10      30.14R
HUNTER AAF     PTCLDY    46  38  75 NW6       30.11R
FORT STEWART   PTCLDY    48  31  52 NW9       30.13R
STATESBORO     PTCLDY    45  32  60 NW9       30.15R
SYLVANIA       SUNNY     40  36  86 NW6       30.14S WCI  36
CLAXTON        FAIR      46  36  68 W9        30.15S

...CSRA...CENTRAL AND FAR SOUTHEAST GEORGIA...

CITY           SKY/WX    TMP DP  RH WIND       PRES   REMARKS
THOMSON        CLEAR     39  32  75 W7        30.19R WCI  34
AUGUSTA-BUSH   PTCLDY    39  28  64 NW6       30.14R WCI  35
AUGUSTA-DANIEL PTCLDY    41  25  53 W9        30.13R
SWAINSBORO     FAIR      43  32  65 NW9       30.17R
VIDALIA        PTCLDY    45  32  61 NW12      30.16R
EASTMAN        FAIR      45  32  59 NW8       30.21R
HAZLEHURST     FAIR      48  35  61 NW8       30.16R
ALMA           CLEAR     49  35  58 NW7       30.16R
WAYCROSS       CLEAR     53  38  56 N9        30.15R
JESUP          FAIR      54  41  62 N5        30.15R
BAXLEY         FAIR      50  36  57 N8        30.15R
BRUNSWICK      CLEAR     52  37  58 NW3       30.14R
SAINT SIMONS   CLEAR     52  40  63 NW5       30.13R

$$

SCZ027-028-034-036>038-045-046-048>050-GAZ119-141-131000-
...LAKE AND SUPPLEMENTAL COASTAL OBSERVATIONS...

STATION/POSITION TIME  TEMP    WIND        PRES    WAVE   SWELL
                       AIR SEA DIR/SP/G            HT/PER HT/PER/DIR
                 (UTC) (F)     (DEG/KT/KT) (MB)    (FT/S) (FT/S/D)
WINYAH BAY       NOT AVBL
LAKE MURRAY      0800   37     300/  2/  4 1018.6R
ACE BASIN NERRS  NOT AVBL
FORT PULASKI     0800   47 50  330/  5/  7 1020.0R
SAPELO ISLAND    0800   53     340/  9     1020.0R

$$

ANZ835-935-AMZ111-154-330-350-352-354-370-450-454-472-131000-
...C-MAN AND BUOY OBSERVATIONS...

STATION/POSITION TIME  TEMP    WIND        PRES    WAVE   SWELL
                       AIR SEA DIR/SP/G            HT/PER HT/PER/DIR
                 (UTC) (F)     (DEG/KT/KT) (MB)    (FT/S) (FT/S/D)
BUOY 41004       0850   54 67  310/ 21/ 25 1017.6F   4/ 6   2/ 6
BUOY 41008       0850   53 53  340/ 14/ 17 1020.0R   3/ 6   2/150/ 6
FOLLY BEACH CMAN 0900   40     310/  5/  9 1019.5R
CAPERS NEARSHORE 0808   47     290/ 10/ 14 1018.1F
FRIPP NEARSHORE  0800   49     330/ 14/ 16 1019.0R


STATION/POSITION TIME  TEMP    WIND        PRES    WAVE   SWELL
                       AIR SEA DIR/SP/G            HT/PER HT/PER/DIR
                 (UTC) (F)     (DEG/KT/KT) (MB)    (FT/S) (FT/S/D)
5E ST. MARYS GA  0821      56                N/A     2/ 5
FRYING PAN BUOY  0800   44 52  320/ 16/ 17 1018.0R
BUOY 41025       0850   40 71  340/ 21/ 25 1016.0R   5/ 8   3/ 60/ 8
CAPE LOOKOUT NC  NOT AVBL
BUOY 41002       0850   60 68  320/ 16/ 21   N/A    13/10  10/250/10
BUOY 41010       0820   69 72              1018.7F
ST AUGUSTINE FL  0900   57 58  280/  6/  8 1021.1R


$$



USA.gov is the U.S. government's official web portal to all federal, state and local government web resources and services.